SKYSAT-C11

Last updated on Thu Jul 03 2025 00:02:30 GMT+0000 (Coordinated Universal Time)

1 42987U 17068A 25183.34094417 .00009391 00000+0 23712-3 0 9992 2 42987 97.3962 318.0695 0001512 96.3390 263.8029 15.40045287429112
UTC large
Height (km)
Speed (km/s)
/
Latitude / Longitude
Inclination (degrees)
Orbital Period (minutes)
Azimuth
Elevation
Range (km)
Doppler Factor

Next 0 passes for location: London (51.5072 / 0.1276)

Sorry there are no passes over London.